Preview of NWS' New Version of Forecast
This preview is not operational and should not be used for support decisions.

Regional Weather Roundup (RWR)

Issued by National Weather Service (NWS)

                            
000
ASUS42 KTBW 182017
RWRFL 
FLORIDA REGIONAL WEATHER ROUNDUP
NATIONAL WEATHER SERVICE TAMPA BAY RUSKIN FL
300 PM EST FRI JAN 18 2019

NOTE: "FAIR" INDICATES FEW OR NO CLOUDS BELOW 12,000 FEET WITH NO
SIGNIFICANT WEATHER AND/OR OBSTRUCTIONS TO VISIBILITY.

FLZ001>010-012>015-112-114-115-182100-
PANHANDLE FLORIDA
  
CITY           SKY/WX    TMP DP  RH WIND       PRES   REMARKS
PENSACOLA      FAIR      67  57  70 S8        30.04F                  
PENSACOLA NAS  PTSUNNY   66  58  75 SW9       30.05F                  
MILTON NAS     PTSUNNY   69  56  62 VRB7      30.03                   
CRESTVIEW      FAIR      72  54  53 SW8       30.05F                  
PANAMA CITY    CLOUDY    67  60  78 SW8       30.05F                  
APALACHICOLA   PTSUNNY   67  60  78 S14       30.07F                  

STATION/POSITION SKY/WX   TEMP    WIND        PRES    WAVE   SWELL
                          AIR SEA DIR/SP/G            HT/PER HT/PER
                          (F)     (DEG/KT/KT) (MB)    (FT/S) (FT/S)
30.1N   87.6W              60     260/  4/  6 1018.2    1/ 5   2/ 5
29.2N   88.2W                     230/  6/  8 1018.5F   1/ 4
PANAMA CITY BEAC           62 62  260/  6/  6 1018.5F
TOWER C                    66     200/ 12/ 13 1018.9F

$$
FLZ011-016>038-118-127-128-134-139-239-182100-
NORTH FLORIDA
  
CITY           SKY/WX    TMP DP  RH WIND       PRES   REMARKS
MARIANNA       FAIR      70  61  73 W14       30.03F                  
TALLAHASSEE    LGT RAIN  65  62  90 W6G20     30.06F                  
PERRY          CLOUDY    69  54  58 SW9       30.10S                  
LIVE OAK       CLOUDY    70  55  60 S5        30.07F                  
CROSS CITY     FAIR      70  56  60 SW12      30.11R                  
LAKE CITY      FAIR      70  54  56 W7        30.08S                  
GAINESVILLE    FAIR      74  53  48 SW6       30.11F                  
WILLISTON        N/A    N/A N/A N/A MISG        N/A                   
PALATKA        FAIR      73  50  43 CALM      30.08F                  
MAYPORT NAS    CLOUDY    63  52  67 SE9       30.09F                  
JACKSONVILLE   CLOUDY    71  51  49 SW3       30.06F                  
JAX NAS        PTSUNNY   71  51  49 SE6       30.08F                  
JAX CECIL      MOSUNNY   77  52  41 VRB3      30.07F                  
FERNANDINA BEA FAIR      61  50  66 E8        30.08F                  
ST AUGUSTINE   FAIR      67  46  47 SE8       30.10F                  
PALM COAST     SUNNY     70  46  43 E8        30.10S                  

STATION/POSITION SKY/WX   TEMP    WIND        PRES    WAVE   SWELL
                          AIR SEA DIR/SP/G            HT/PER HT/PER
                          (F)     (DEG/KT/KT) (MB)    (FT/S) (FT/S)
SHELL POINT      NOT AVBL
KEATON BEACH               60     170/  7/  7 1019.5F
CEDAR KEY                  63     250/  4/  5 1020.0F
FERNANDINA                 65 57   90/  4/  8 1019.4F
30.7N   81.3W                 58                N/A     1/11
MAYPORT                    63 59  110/  7/  8 1019.0F
31.4N   80.9W              58 59  110/  4/  6 1018.9F   1/11   2/11
ST AUGUSTINE               60 61  130/  6/  7 1019.5F

$$
FLZ040-043>046-052-053-057-058-063-144-182100-
INTERIOR CENTRAL FLORIDA
  
CITY           SKY/WX    TMP DP  RH WIND       PRES   REMARKS
OCALA          FAIR      75  50  41 SW6       30.09F                  
LEESBURG       FAIR      71  40  32 SE6       30.10F                  
SANFORD        FAIR      72  40  31 SE5       30.09F                  
ORLANDO EXEC   FAIR      74  35  24 CALM      30.09F                  
ORLANDO INTL   FAIR      74  35  24 S3        30.09F                  
KISSIMMEE      FAIR      74  38  27 VRB3      30.10F                  
WINTER HAVEN   FAIR      77  35  21 N3        30.10F                  
LAKELAND       SUNNY     73  34  23 CALM      30.10F                  
BARTOW         SUNNY     73  34  23 CALM      30.09F                  
SEBRING        FAIR      78  41  26 CALM      30.09F                  
OKEECHOBEE     FAIR      77  45  31 CALM      30.08F                  

$$
FLZ041-047-054-059-064-141-147-182100-
EAST CENTRAL FLORIDA
  
CITY           SKY/WX    TMP DP  RH WIND       PRES   REMARKS
ORMOND BEACH   SUNNY     66  45  45 E6        30.11S                  
DAYTONA BEACH  FAIR      69  45  41 E7        30.10F                  
DELAND         FAIR      73  45  35 CALM      30.08F                  
NEW SMYRNA BEA SUNNY     68  36  30 E7        30.12F                  
TITUSVILLE     SUNNY     75  36  23 VRB6      30.11F                  
MELBOURNE      FAIR      72  50  45 NE10      30.10F                  
VERO BEACH     FAIR      72  53  51 NE10      30.10F                  
FT PIERCE      FAIR      74  53  48 E8        30.10F                  
STUART         SUNNY     73  54  49 NE9       30.11F                  

STATION/POSITION SKY/WX   TEMP    WIND        PRES    WAVE   SWELL
                          AIR SEA DIR/SP/G            HT/PER HT/PER
                          (F)     (DEG/KT/KT) (MB)    (FT/S) (FT/S)
28.5N   80.2W              68     320/  6/ 10 1020.0F   2/11   2/11
28.9N   78.5W              72 76  340/  6/ 10 1019.5F
TRIDENT PIER               72 67   60/  5/  9 1020.8F
28.4N   80.5W                 66                N/A     2/11
27.5N   80.2W                 70                N/A     2/11   2/11

$$
FLZ050-056-061-142-242-148-248-149-249-151-251-155-255-
160-260-182100-
WEST CENTRAL FLORIDA
  
CITY           SKY/WX    TMP DP  RH WIND       PRES   REMARKS
CRYSTAL RIVER  FAIR      72  48  43 SW5       30.10S                  
INVERNESS      FAIR      75  50  41 S5        30.09F                  
BROOKSVILLE    FAIR      74  45  35 VRB3      30.10F                  
CLEARWATER AIR FAIR      64  48  55 W5        30.10F                  
ST PETE CLEARW FAIR      71  39  31 NE3       30.10F                  
TAMPA INTL     PTSUNNY   70  35  27 W6        30.10F                  
TAMPA EXEC     FAIR      73  36  25 CALM      30.10F                  
PLANT CITY     FAIR      77  34  20 CALM      30.12S                  
PETER O KNIGHT PTSUNNY   72  39  30 S5        30.10F                  
ST PETERSBURG  FAIR      68  27  21 SE3       30.09F                  
SARASOTA       FAIR      69  41  36 W8        30.08F                  
VENICE         FAIR      68  43  40 W7        30.11F                  

STATION/POSITION SKY/WX   TEMP    WIND        PRES    WAVE   SWELL
                          AIR SEA DIR/SP/G            HT/PER HT/PER
                          (F)     (DEG/KT/KT) (MB)    (FT/S) (FT/S)
27.3N   84.2W                 73                N/A     0
CLEARWATER BEACH           62 63  260/  5/  5 1019.8F
MIDDLE TAMPA BAY           65     310/  2/  3 1019.6F
VENICE                     66 67  270/  4/  5 1019.3F

$$
FLZ066-069-070-075>078-162-262-165-265-182100-
SOUTHWEST FLORIDA AND KEYS
  
CITY           SKY/WX    TMP DP  RH WIND       PRES   REMARKS
PUNTA GORDA    FAIR      76  34  21 W6        30.11F                  
FT MYERS       FAIR      76  49  38 W6        30.08F                  
SOUTHWEST INTL FAIR      75  54  47 MISG      30.09F                  
NAPLES         FAIR      75  57  53 W7        30.08F                  
MARCO ISLAND   FAIR      75  60  59 W7        30.09                   
IMMOKALEE      SUNNY     81  45  28 SW6       30.08F                  
MARATHON       FAIR      77  57  50 NE9       30.08F                  
KEY WEST NAS   FAIR      77  61  57 N10       30.09F                  
KEY WEST INTL  FAIR      77  61  57 VRB6      30.09F                  

STATION/POSITION SKY/WX   TEMP    WIND        PRES    WAVE   SWELL
                          AIR SEA DIR/SP/G            HT/PER HT/PER
                          (F)     (DEG/KT/KT) (MB)    (FT/S) (FT/S)
NAPLES                     67 66  270/  3/  3 1018.9F
26.0N   85.6W              70 77  100/  8/ 10 1019.4F   1/ 4
DRY TORTUGAS               71      80/  9/ 11 1019.0F
SAND KEY                   72                 1018.9F
SOMBRERO KEY               71                 1018.2F
LONG KEY                   69 69   10/  2/  2 1018.6F
MOLASSES REEF              73 75   60/  9/ 10 1019.6F

$$
FLZ067-068-071>074-168-172>174-182100-
SOUTHEAST FLORIDA 
  
CITY           SKY/WX    TMP DP  RH WIND       PRES   REMARKS
W PALM BEACH   FAIR      76  59  55 E7        30.09F                  
BOCA RATON     SUNNY     77  59  53 VRB5      30.09F                  
FT LAUDER-EXEC FAIR      77  59  53 SE5       30.08F                  
FT LAUDERDALE  FAIR      76  62  62 E8        30.08F                  
POMPANO BEACH  FAIR      76  59  55 E9        30.09F                  
PEMBROKE PINES FAIR      78  53  41 VRB5      30.09F                  
OPA LOCKA      FAIR      79  55  43 VRB7      30.09F                  
MIAMI          PTSUNNY   78  59  51 E6        30.08F                  
WEST KENDALL   FAIR      79  56  45 E10       30.08F                  
HOMESTEAD      NOT AVBL                                               

STATION/POSITION SKY/WX   TEMP    WIND        PRES    WAVE   SWELL
                          AIR SEA DIR/SP/G            HT/PER HT/PER
                          (F)     (DEG/KT/KT) (MB)    (FT/S) (FT/S)
PORT EVERGLADES            74      70/  5/  7 1019.0F
VIRGINIA KEY               73 74   60/  6/  8 1018.7F
LAKE WORTH                 72 76  100/  6/  8 1020.2F
FOWEY ROCKS                72 76   60/  8/  9 1019.4F
SETTLEMENT POINT           76      CALM  /  1 1019.5F

$$